Showing default

MERIDIAN 7, 40296

Orbit data source: Space-Track

MERIDIAN 7, 40296 is a payload satellite owned by VVKO (CIS) in HEO that was launched on Thu, 30 Oct 2014 UTC via a SOYUZ-2-1A launch vehicle from the Plesetsk Missile And Space Complex (PKMTR). Payload-class satellites include a variety of spacecraft equipped with specific instruments for various scientific and technological missions. These include communications satellites like Starlink; space stations such as the ISS; scientific satellites like the Hubble; Earth observation satellites from companies like Planet Labs, Umbra, and HawkEye 360; GPS; miniature CubeSats for education and research; and military/defense satellites.

Loading next visibility...
Identifier
40296, 2014-069A
Orbit
HEO
Country
Flag of CISCIS
Related business
Manufacturer
Resehetnev ISS
Mission
Operational Defense Communications
Bus & Motor
MERIDIAN, Unknown motor
Mass
~2,000 kg wet, ~2,000 kg dry
Launch date (UTC)
2014-10-30 (11 years ago)
Launch vehicle
SOYUZ-2-1A
Launch site
Plesetsk Missile And Space Complex (PKMTR)
Object type
Payload
Rocket body
Debris
Shape & HBR
Box + 2 Pan, 5.0 m
Radar Cross Section
14.304 m², Large (>1 m²)

Expand to show TLE details & history
Last TLE update: 2 days ago

TLE from 2 days ago
0 MERIDIAN 7
1 40296U 14069A   25260.49933332  .00000011  00000-0  00000-0 0  9994
2 40296  63.4776 243.0328 6776058 272.1028  17.9322  2.00622049 79767
Epoch: 2025-09-17T11:59Z
TLE epoch observation values (Epoch: 2025-09-17T11:59:02.398Z)
Latitude
0.00005°
Longitude
66.61307°
Altitude
7,637.484 km
Speed
6.471 km/s
True Right ascension
16h 12m 11s
True Declination
0° 00' 00"
Sunlit
Object was in daylight at epoch
Visualization orbit readout
Latitude
Unknown
Longitude
Unknown
Altitude
Unknown
Speed
Unknown
Apparent Right ascension
Unknown
Apparent Declination
Unknown
Sunlit
N/A
Visualization observer readout
Local Sidereal Time
21:18:07
Azimuth
Unknown
Elevation
Unknown
Doppler factor
Unknown
Orbital elements
Apogee altitude
38,169.625 km
Perigee altitude
2,182.837 km
Semi-major axis
26,554.368 km
Eccentricity
0.67761
Inclination
63.4776°
RAAN
243.0328°
Arg. of periapsis
272.1028°
True anomaly
87.78418°
Mean anomaly
17.9322°
Eccentric anomaly
45.73458°
Mean motion
0.50158 °/min
Orbital period
717.73 mins
BSTAR
0
Loading maneuver chart data...
Computing Atmospheric mass density...
Loading historical data...
Loading historical data...
Loading historical data...
Loading historical data...
Loading historical data...
Loading historical data...
Loading historical data...
Other satellites on launch #69 in the year 2014 (2014-10-30 UTC)

Documentation

Showing up to 5 results
|